Regional Weather Roundup
Issued by NWS Cleveland, OH

Home | Current Version | Previous Version | Graphics & Text | Print | Product List | Glossary On
Versions: 1 2 3 4 5 6 7 8 9 10 11 12 13 14 15 16 17 18 19 20 21 22 23 24 25 26 27 28 29 30 31 32 33 34 35 36 37 38 39 40 41 42 43 44 45 46 47 48 49 50
391
ASUS41 KCLE 080500
RWRCLE
OHIO REGIONAL WEATHER ROUNDUP
NATIONAL WEATHER SERVICE WILMINGTON, OH
1200 AM EST THU DEC 08 2016

NOTE: "FAIR" INDICATES FEW OR NO CLOUDS BELOW 12,000 FEET WITH NO
SIGNIFICANT WEATHER AND/OR OBSTRUCTIONS TO VISIBILITY.

OHZ001>008-015>018-024>027-034-035-043-044-080600-
   NORTHWEST OHIO

CITY           SKY/WX    TMP DP  RH WIND       PRES   REMARKS
DEFIANCE       CLOUDY    29  19  66 W9        30.10S WCI  20
FINDLAY        FAIR      30  22  72 W16       30.09S WCI  19
TOLEDO EXPRESS CLOUDY    29  22  75 W14       30.07S WCI  18
TOLEDO EXEC    CLOUDY    31  22  69 W18       30.08S WCI  19
LIMA           CLOUDY    30  24  78 W21G28    30.11R WCI  17
$$

OHZ009>014-019>023-028>033-038-089-080600-
   NORTHEAST OHIO

CITY           SKY/WX    TMP DP  RH WIND       PRES   REMARKS
CLE-HOPKINS    CLOUDY    33  22  63 W18       30.08S WCI  22
CLE-LAKEFRONT  MOCLDY    34  23  64 SW20      30.06R WCI  23
CUY CO. ARPT   NOT AVBL
LORAIN-ELYRIA  CLOUDY    31  21  66 W15       30.07S WCI  20
ASHTABULA      CLOUDY    33  24  69 SW10      30.03R WCI  25
AKRON-CANTON   MOCLDY    32  22  66 W10       30.05S WCI  24
WOOSTER        NOT AVBL
MANSFIELD      CLOUDY    31  22  69 W9G18     30.06S WCI  23
YOUNGSTOWN     MOCLDY    33  22  63 W12       30.03R WCI  24
$$

OHZ042-051>053-060>062-070>072-077>081-080600-
  SOUTHWEST OHIO

CITY           SKY/WX    TMP DP  RH WIND       PRES   REMARKS
CINC-COVINGTON CLOUDY    34  23  64 NW13      30.16S WCI  25
CINC-LUNKEN    CLOUDY    36  24  62 NW7       30.18F
HAMILTON       CLOUDY    34  23  64 W14       30.19R WCI  25
DAYTON         NOT AVBL
WRIGHT-PAT AFB NOT AVBL
DAYTON GENERAL CLOUDY    32  21  64 W14       30.13S WCI  22
WILMINGTON     CLOUDY    33  24  69 W13       30.13S WCI  24
$$

OHZ036-037-039>041-045>050-054>059-063>069-073>076-082>088-080600-
  CENTRAL AND SOUTHEAST OHIO

CITY           SKY/WX    TMP DP  RH WIND       PRES   REMARKS
COLUMBUS       CLOUDY    33  25  72 W10       30.11S WCI  25
OSU AIRPORT    CLOUDY    33  25  72 W8        30.11S WCI  26
BOLTON FIELD   NOT AVBL
RICKENBACK AFB NOT AVBL
NEWARK         CLOUDY    34  23  64 W9        30.09F WCI  27
MARION         CLOUDY    31  22  69 W10       30.10S WCI  22
LANCASTER      CLOUDY    33  25  72 CALM      30.12S
ZANESVILLE     CLOUDY    34  24  67 W6        30.10S WCI  29
NEW PHILLY     CLOUDY    34  24  67 W6        30.09S WCI  29
$$




USA.gov is the U.S. government's official web portal to all federal, state and local government web resources and services.